Theta_e
315 314 314 313 311 309 304 301 288 302 301 289 285 286 286 289 288 291 287 287 287 286 286 285 285 285 287 291 290 285 288 285 282 284 287 288 287 285 285 281 279 281 278 281
315 314 314 313 311 307 303 292 295 302 300 287 285 285 286 289 288 289 287 286 288 288 285 284 285 286 290 290 289 286 288 284 281 282 283 287 284 287 287 285 283 279 278 285
315 314 314 312 310 308 303 292 286 293 295 293 289 286 287 286 290 290 289 287 289 287 284 286 284 285 288 290 290 290 289 283 281 280 283 284 280 282 286 284 280 282 281 284
315 314 313 312 310 308 301 293 286 288 285 286 290 290 288 286 285 289 290 287 287 286 282 282 283 286 286 289 291 289 287 280 277 280 281 282 281 281 282 282 283 279 283 279
315 314 313 312 310 307 298 287 288 292 288 292 290 289 286 287 287 287 286 286 289 288 284 286 283 285 286 286 289 287 287 281 278 275 277 279 278 281 281 281 282 282 283 282
314 314 313 312 310 308 296 294 294 295 288 288 289 289 289 288 290 289 291 290 288 286 287 288 288 289 289 288 287 285 284 282 278 278 275 274 277 278 280 283 284 284 280 288
311 313 313 312 309 309 300 296 297 293 285 286 288 289 287 288 289 287 288 290 288 287 291 290 289 287 286 287 286 288 282 280 279 277 277 279 287 286 286 284 286 287 288 290
309 311 313 311 309 310 301 299 301 297 285 288 287 287 286 286 287 286 286 287 287 289 288 285 283 282 281 278 282 284 285 282 278 275 276 282 282 282 283 283 287 290 288 290
309 310 312 311 309 310 303 299 305 301 290 289 294 289 288 286 285 284 284 286 288 286 285 285 280 281 281 276 277 283 283 283 279 275 274 278 285 287 290 289 285 294 292 291
308 309 309 311 309 310 307 301 304 301 291 292 294 291 289 291 288 285 284 284 283 285 284 282 280 282 275 279 275 274 277 279 276 276 276 281 287 289 291 282 287 292 293 293
307 308 308 308 309 310 308 301 304 302 294 293 294 295 291 290 290 286 284 285 283 283 281 284 284 281 277 278 280 277 278 276 274 277 275 275 289 288 286 292 293 293 292 294
306 307 307 306 307 309 309 298 303 302 297 292 295 296 296 299 297 289 288 289 285 287 285 285 284 279 275 280 280 280 277 283 281 280 281 285 290 293 294 292 293 293 294 294
302 305 306 305 306 305 307 300 301 295 287 288 290 291 295 293 295 296 288 288 290 288 291 287 285 281 280 277 278 280 279 282 281 280 286 284 286 289 291 292 292 293 294 294
299 301 305 305 305 304 305 301 301 300 291 289 287 291 291 293 295 294 294 291 289 287 287 285 284 283 283 284 282 281 282 281 282 280 283 284 286 287 289 290 290 291 293 293
298 299 302 304 305 305 304 303 302 304 296 285 285 287 289 290 294 293 292 291 287 286 284 284 283 285 281 281 279 279 281 281 280 283 286 289 290 291 291 288 288 289 290 290
296 298 299 302 303 303 299 288 299 303 298 288 284 285 285 288 292 291 291 291 288 288 286 285 286 284 284 282 282 286 283 284 287 289 290 288 289 285 286 288 288 288 287 289
297 295 297 300 301 299 293 288 296 303 298 286 280 281 284 287 286 285 285 286 285 286 285 284 284 281 282 282 283 285 285 286 287 287 286 285 286 286 286 285 285 282 283 284
296 296 296 298 298 297 291 296 299 301 293 290 281 278 282 285 283 281 285 283 284 284 284 282 282 279 280 278 285 289 291 292 287 286 287 288 287 282 282 280 280 278 281 282
296 295 296 295 293 285 287 297 301 299 291 284 280 278 278 284 283 283 283 285 281 283 283 283 283 283 279 284 285 287 290 290 290 289 288 286 284 285 286 282 279 279 283 283
295 293 285 284 285 294 296 292 287 288 287 284 283 284 280 284 282 281 281 284 281 278 283 281 280 282 288 289 288 288 289 289 286 281 281 280 283 283 285 285 284 283 284 285
288 284 284 288 294 291 286 284 284 285 282 284 282 284 279 285 281 280 283 281 281 279 280 280 280 279 288 290 289 290 289 290 288 289 289 289 289 287 285 286 284 283 284 284
287 288 287 286 285 284 281 281 284 284 283 281 282 283 285 283 287 283 281 281 281 279 279 279 277 286 287 288 289 290 288 288 287 286 286 286 286 286 285 284 283 283 284 283
287 284 282 281 281 274 277 276 280 282 283 282 283 281 282 282 285 283 281 278 277 279 277 277 281 284 284 285 281 282 279 279 279 278 276 276 277 276 276 280 280 281 282 281
280 277 273 275 274 277 280 281 284 286 284 284 286 282 284 283 281 281 279 279 277 275 274 276 288 284 283 281 279 276 276 277 275 275 273 271 270 271 271 271 273 274 276 277
279 277 272 274 281 279 276 276 277 282 286 287 284 282 283 281 278 280 274 272 273 276 280 286 289 286 284 281 276 274 272 268 269 272 271 270 269 269 271 271 271 272 272 273
279 278 276 280 278 279 279 279 280 285 288 288 286 280 279 279 279 272 274 274 273 283 282 287 286 275 272 273 272 271 270 270 270 271 270 270 267 269 271 270 272 271 271 271
276 275 280 279 279 279 280 281 281 284 284 284 282 280 281 277 276 275 280 278 288 285 281 276 271 274 271 267 266 265 266 268 268 268 268 269 269 268 269 272 275 271 272 270
Wind_Speed
26 26 25 25 24 20 8 3 2 2 3 3 1 2 5 1 5 2 2 1 1 1 4 2 2 2 1 3 3 0 3 2 4 1 1 2 4 1 1 2 3 2 3 7
28 28 28 28 27 22 6 5 2 2 3 4 1 1 3 1 4 5 4 4 1 1 3 1 2 2 3 4 3 1 2 1 4 3 2 2 5 5 5 2 0 6 3 2
29 30 31 31 30 21 5 4 4 1 1 1 5 5 4 5 1 4 2 3 3 4 2 1 2 3 3 3 2 3 2 1 5 4 3 3 4 6 8 7 3 2 11 13
31 32 33 34 32 23 6 1 4 4 5 4 6 6 9 6 6 2 5 3 7 5 3 1 3 4 3 4 6 3 2 3 1 9 12 10 10 9 9 14 12 7 3 6
30 33 34 35 35 24 3 7 6 2 3 7 11 6 8 9 6 10 5 6 8 9 4 3 5 8 6 4 7 4 2 2 3 6 2 4 8 12 12 12 13 16 15 23
21 25 32 35 36 22 4 2 2 4 5 5 7 6 8 11 11 4 1 7 5 8 7 3 4 5 3 1 5 8 4 2 1 5 1 5 7 8 16 7 10 7 10 10
9 25 29 33 36 26 5 4 5 4 3 4 5 8 4 9 7 7 4 5 4 4 12 13 8 8 6 2 4 1 4 3 1 6 4 4 1 2 5 10 7 18 10 12
10 10 29 35 38 34 4 4 4 4 4 6 4 7 6 7 5 4 4 2 1 8 4 3 2 1 0 2 2 3 2 3 1 3 4 10 3 5 7 8 6 20 20 16
10 11 11 33 37 35 7 3 1 4 8 10 8 7 7 6 5 3 3 3 1 1 1 2 4 4 2 2 3 1 2 3 2 1 4 5 3 5 3 2 5 7 15 12
12 11 9 28 34 31 11 3 4 5 4 3 11 8 10 8 5 5 5 5 1 2 1 2 4 3 1 5 9 8 5 5 7 6 5 11 3 9 7 1 1 3 8 10
11 11 12 4 32 30 16 3 7 5 4 6 8 8 9 6 5 7 7 6 1 2 5 5 5 5 6 2 4 8 10 10 6 5 6 10 11 8 7 1 1 2 4 8
14 12 11 9 4 32 24 2 5 3 2 2 2 0 4 2 14 9 12 1 6 8 5 4 2 3 3 2 4 4 6 6 7 12 8 2 17 3 7 2 2 3 3 5
4 9 14 14 13 8 9 3 5 5 4 2 2 5 3 0 4 8 8 1 6 5 1 4 2 5 5 6 8 5 6 3 4 1 6 17 14 15 16 8 9 3 4 5
3 6 10 14 16 13 10 3 4 4 4 1 2 1 2 1 4 4 1 7 7 6 3 2 3 3 3 3 1 4 2 9 6 7 13 9 16 15 17 15 14 11 8 9
5 5 9 10 13 12 4 0 5 5 6 5 1 2 1 2 5 7 8 12 8 4 4 3 5 2 3 2 1 6 8 10 9 9 8 5 5 5 8 14 15 15 13 12
12 7 8 10 15 14 3 1 3 8 3 6 4 1 3 2 6 9 12 9 3 3 5 4 3 1 3 5 7 7 15 13 19 14 3 8 4 3 3 7 12 14 13 15
11 11 10 10 10 5 4 5 1 6 4 4 5 4 1 5 4 2 3 1 2 3 3 4 3 3 4 5 14 8 12 19 17 15 4 11 11 12 8 11 4 2 4 5
13 10 10 12 12 6 5 5 4 4 3 3 5 5 5 5 4 3 2 3 1 2 3 2 3 2 2 11 1 8 14 23 10 16 16 20 4 2 4 3 4 5 9 7
13 10 7 4 5 3 3 8 6 3 3 5 4 10 8 7 4 4 2 2 3 0 4 5 6 5 13 12 12 17 19 16 14 6 13 12 15 19 15 8 7 9 12 8
15 5 3 4 5 8 1 3 3 6 3 3 3 1 6 7 5 4 5 3 4 5 5 6 5 10 23 14 12 12 14 16 7 5 9 3 14 14 16 17 13 13 13 12
4 5 3 2 4 3 3 7 9 5 5 5 5 2 9 3 6 5 4 5 6 6 6 7 6 12 21 14 22 21 23 16 13 15 15 13 13 8 11 11 11 11 12 11
4 4 3 1 2 5 8 9 6 8 10 6 7 7 7 4 3 4 6 4 4 5 8 6 8 16 6 10 16 18 8 12 12 10 15 14 12 8 9 8 7 9 10 9
3 3 6 5 6 7 10 12 7 6 7 11 9 7 6 5 3 4 5 7 5 9 5 9 11 2 3 6 3 5 4 4 3 4 2 3 5 3 4 7 4 5 8 6
5 5 7 8 7 6 2 6 9 3 6 15 15 8 5 5 5 5 7 4 7 7 10 13 4 7 6 7 4 4 5 6 4 2 1 4 3 5 4 4 4 5 8 5
4 5 6 6 4 2 1 3 5 3 9 14 9 6 4 4 4 3 6 6 8 11 10 8 3 6 8 6 4 5 5 3 2 2 2 4 4 5 5 2 3 4 4 4
3 5 4 4 6 5 2 3 5 2 8 8 2 7 6 6 7 8 11 10 10 6 6 3 1 0 2 3 4 3 3 2 1 3 2 3 3 4 4 4 3 2 3 5
6 4 2 3 3 3 3 2 2 4 5 9 4 10 7 6 6 8 8 7 3 2 2 3 4 3 2 4 2 3 2 2 2 2 1 2 3 4 3 3 2 4 4 4
Wind_Direction
189 186 177 168 165 156 171 162 208 42 288 66 81 131 149 115 154 170 124 154 147 190 155 182 216 172 73 153 179 354 113 309 288 303 210 310 289 279 249 304 113 253 295 283
188 185 178 170 165 165 142 139 108 83 288 147 191 222 139 220 156 176 169 146 174 127 161 237 223 195 116 174 209 49 113 166 292 209 207 198 257 222 223 108 260 230 262 294
188 184 177 171 169 171 104 120 131 72 268 245 152 143 194 156 193 144 149 123 155 148 145 159 220 220 165 180 230 86 130 278 245 281 350 29 227 232 223 195 218 225 236 288
187 182 177 173 172 172 106 110 211 173 184 236 175 161 166 151 168 223 183 184 217 170 147 173 216 181 165 189 156 143 257 265 280 276 278 276 258 255 216 216 222 221 113 259
192 180 178 176 171 167 103 143 150 149 126 154 155 158 207 177 159 161 189 221 184 192 183 201 199 178 200 190 173 182 165 298 359 280 326 275 272 258 234 237 251 261 265 281
188 190 182 178 170 160 136 133 22 103 146 155 158 202 176 193 146 195 349 187 148 198 218 99 61 72 29 182 170 188 181 222 345 271 326 302 272 229 200 196 211 201 199 226
284 188 184 179 171 181 127 178 128 123 162 182 201 165 141 170 189 145 145 169 184 109 117 110 96 74 68 103 84 298 169 148 239 287 306 260 187 138 202 215 231 218 240 239
242 253 188 178 179 185 120 153 149 135 134 182 144 160 121 93 61 81 125 74 19 160 137 108 122 99 110 25 57 171 271 179 198 291 289 298 170 195 192 192 284 214 225 239
228 228 236 187 185 183 146 159 180 112 125 215 131 159 169 146 146 107 75 46 56 325 99 146 191 216 171 179 116 151 174 270 212 153 274 262 62 150 166 177 276 197 208 224
211 219 236 200 189 186 173 163 193 115 137 179 145 170 177 142 133 115 133 150 143 336 146 157 197 216 59 205 177 170 176 192 212 202 262 280 179 144 143 272 340 163 212 198
205 209 204 255 200 190 189 139 195 135 134 170 182 166 146 133 156 151 145 113 206 138 196 200 198 196 199 199 143 179 179 161 184 174 223 273 137 130 192 30 144 177 191 206
194 190 175 190 229 211 196 139 183 76 115 149 146 245 309 148 168 127 182 65 150 159 174 205 120 167 150 185 237 202 228 204 180 201 215 118 196 255 236 359 294 210 204 201
212 186 181 183 192 197 208 151 137 84 114 42 110 207 170 51 156 148 131 212 171 186 111 139 149 223 159 183 225 202 229 157 234 72 246 233 225 239 250 256 226 245 240 180
345 232 182 173 180 186 192 162 161 132 90 121 217 327 182 62 158 127 67 126 88 91 84 128 163 218 175 228 324 216 137 147 184 254 272 272 262 240 246 239 227 230 230 225
223 325 224 175 158 148 125 2 196 187 154 153 130 352 57 33 174 135 120 137 118 135 137 169 211 178 161 181 287 222 186 183 192 227 194 185 253 211 237 223 227 227 222 226
180 252 322 202 159 137 116 284 207 197 132 122 167 19 18 37 145 133 148 154 101 126 156 176 216 100 193 227 239 179 194 214 227 244 188 207 250 263 232 209 224 228 213 224
193 188 262 256 163 157 170 179 131 157 113 132 130 149 192 106 79 75 83 31 132 127 158 198 158 192 200 250 247 168 208 230 232 234 284 275 231 251 205 213 198 150 235 221
196 179 236 214 224 227 276 270 110 173 151 189 146 119 142 172 130 123 134 125 135 202 135 130 178 126 218 255 77 203 222 246 222 224 214 238 256 318 232 191 160 216 242 234
192 168 257 253 205 189 227 242 155 210 222 173 169 143 170 160 122 114 134 178 166 74 202 186 167 177 225 231 205 216 213 217 222 218 225 231 233 249 254 212 205 225 245 229
179 133 215 185 205 200 115 111 182 218 161 152 166 112 142 162 142 148 136 177 179 192 209 119 212 252 247 235 232 237 234 242 136 169 243 218 247 225 236 234 232 224 240 245
167 173 212 321 129 116 204 211 185 181 190 157 145 166 135 226 148 137 194 169 170 207 170 189 220 255 242 225 236 234 237 234 220 226 245 241 249 236 228 244 217 216 232 232
155 118 87 342 163 196 226 184 180 194 189 154 154 158 120 149 181 137 161 183 171 204 141 185 243 242 174 205 228 235 235 241 237 211 231 241 244 232 245 251 224 215 228 230
89 198 169 186 190 239 204 181 193 171 165 152 171 137 123 137 185 121 178 158 172 124 184 226 239 80 201 212 88 220 195 194 209 224 248 279 275 284 230 257 250 243 242 230
197 200 178 203 185 225 320 272 205 142 152 153 157 118 137 127 158 160 166 100 139 205 223 231 231 204 210 191 188 133 191 177 193 212 226 265 252 269 276 257 251 256 258 243
203 187 211 216 226 89 340 329 305 296 177 151 130 99 127 131 152 174 123 164 215 212 232 232 153 189 195 202 167 164 151 156 189 194 202 250 261 257 275 254 278 265 268 259
210 232 226 180 236 214 78 14 319 273 203 157 95 133 169 175 153 167 201 172 210 206 210 237 62 87 135 121 115 122 113 167 248 257 240 267 268 277 300 307 287 301 285 276
172 229 254 296 296 226 158 123 308 325 252 202 154 175 180 107 190 208 186 203 181 120 67 23 17 7 69 54 80 125 153 210 229 263 307 308 311 308 322 335 12 322 292 261